| time (UTC) | temp F | wind direction | speed knots | gust knots | rain 1hr in | rain 24hr in | rain mn in | humidity % | barometer mb |
| 20260504040036 | 51 | 296 | 0.0 | 3.5 | 0.00 | 0.00 | 0.00 | 49 | 1017.4 |
| 20260504035529 | 51 | 298 | 0.9 | 3.5 | 0.00 | 0.00 | 0.00 | 51 | 1017.4 |
| 20260504035027 | 51 | 295 | 0.0 | 2.6 | 0.00 | 0.00 | 0.00 | 49 | 1017.4 |
| 20260504034528 | 52 | 296 | 0.9 | 4.3 | 0.00 | 0.00 | 0.00 | 51 | 1017.5 |
| 20260504034027 | 52 | 297 | 1.7 | 4.3 | 0.00 | 0.00 | 0.00 | 49 | 1017.5 |
| 20260504033527 | 52 | 255 | 0.9 | 2.6 | 0.00 | 0.00 | 0.00 | 51 | 1017.5 |
| 20260504033027 | 52 | 275 | 0.9 | 3.5 | 0.00 | 0.00 | 0.00 | 49 | 1017.5 |
| 20260504032527 | 52 | 306 | 0.0 | 3.5 | 0.00 | 0.00 | 0.00 | 51 | 1017.6 |
| 20260504032028 | 52 | 306 | 0.0 | 3.5 | 0.00 | 0.00 | 0.00 | 48 | 1017.6 |
| 20260504031530 | 52 | 284 | 0.0 | 1.7 | 0.00 | 0.00 | 0.00 | 48 | 1017.6 |
| 20260504031027 | 52 | 323 | 0.0 | 2.6 | 0.00 | 0.00 | 0.00 | 47 | 1017.6 |
| 20260504030526 | 52 | 323 | 0.9 | 2.6 | 0.00 | 0.00 | 0.00 | 46 | 1017.6 |
| 20260504030027 | 52 | 323 | 0.9 | 2.6 | 0.00 | 0.00 | 0.00 | 48 | 1017.6 |
| 20260504025525 | 52 | 324 | 1.7 | 3.5 | 0.00 | 0.00 | 0.00 | 48 | 1017.6 |
| 20260504025026 | 52 | 325 | 0.9 | 4.3 | 0.00 | 0.00 | 0.00 | 48 | 1017.6 |
| 20260504024524 | 53 | 257 | 1.7 | 4.3 | 0.00 | 0.00 | 0.00 | 48 | 1017.6 |
| 20260504024024 | 53 | 264 | 2.6 | 6.1 | 0.00 | 0.00 | 0.00 | 47 | 1017.6 |
| 20260504023524 | 53 | 24 | 1.7 | 6.1 | 0.00 | 0.00 | 0.00 | 48 | 1017.6 |
| 20260504023025 | 53 | 236 | 0.9 | 7.0 | 0.00 | 0.00 | 0.00 | 50 | 1017.7 |
| 20260504022524 | 53 | 321 | 1.7 | 7.0 | 0.00 | 0.00 | 0.00 | 47 | 1017.8 |
| 20260504022023 | 53 | 291 | 2.6 | 7.8 | 0.00 | 0.00 | 0.00 | 46 | 1018.0 |
| 20260504021524 | 53 | 294 | 2.6 | 7.8 | 0.00 | 0.00 | 0.00 | 48 | 1018.0 |
| 20260504021023 | 53 | 318 | 1.7 | 4.3 | 0.00 | 0.00 | 0.00 | 47 | 1018.0 |
| 20260504020524 | 53 | 192 | 0.9 | 6.1 | 0.00 | 0.00 | 0.00 | 47 | 1017.9 |
| 20260504020024 | 53 | 263 | 1.7 | 6.1 | 0.00 | 0.00 | 0.00 | 47 | 1017.9 |
| 20260504015522 | 53 | 261 | 1.7 | 4.3 | 0.00 | 0.00 | 0.00 | 46 | 1017.9 |
| 20260504015022 | 54 | 298 | 0.0 | 3.5 | 0.00 | 0.00 | 0.00 | 46 | 1017.9 |
| 20260504014523 | 53 | 301 | 0.0 | 1.7 | 0.00 | 0.00 | 0.00 | 46 | 1017.9 |
| 20260504014022 | 54 | 306 | 0.0 | 5.2 | 0.00 | 0.00 | 0.00 | 45 | 1018.0 |
| 20260504013522 | 53 | 305 | 2.6 | 5.2 | 0.00 | 0.00 | 0.00 | 48 | 1018.0 |
| 20260504013028 | 53 | 267 | 1.7 | 4.3 | 0.00 | 0.00 | 0.00 | 46 | 1018.1 |
| 20260504012621 | 53 | 223 | 1.7 | 4.3 | 0.00 | 0.00 | 0.00 | 47 | 1018.2 |
| 20260504012022 | 53 | 292 | 1.7 | 7.8 | 0.00 | 0.00 | 0.00 | 46 | 1018.2 |
| 20260504011520 | 53 | 348 | 3.5 | 7.8 | 0.00 | 0.00 | 0.00 | 47 | 1018.3 |
| 20260504011020 | 53 | 289 | 0.9 | 6.1 | 0.00 | 0.00 | 0.00 | 46 | 1018.3 |
| 20260504010520 | 53 | 342 | 1.7 | 4.3 | 0.00 | 0.00 | 0.00 | 47 | 1018.4 |
| 20260504010020 | 53 | 338 | 0.0 | 3.5 | 0.00 | 0.00 | 0.00 | 46 | 1018.3 |
| 20260504005520 | 54 | 303 | 1.7 | 3.5 | 0.00 | 0.00 | 0.00 | 47 | 1018.4 |
| 20260504005019 | 54 | 302 | 0.9 | 4.3 | 0.00 | 0.00 | 0.00 | 45 | 1018.5 |
| 20260504004519 | 53 | 296 | 2.6 | 7.0 | 0.00 | 0.00 | 0.00 | 48 | 1018.5 |
| 20260504004019 | 53 | 232 | 1.7 | 7.0 | 0.00 | 0.00 | 0.00 | 45 | 1018.5 |
| 20260504003518 | 53 | 232 | 1.7 | 6.1 | 0.00 | 0.00 | 0.00 | 45 | 1018.5 |
| 20260504003021 | 53 | 297 | 1.7 | 6.1 | 0.00 | 0.00 | 0.00 | 47 | 1018.5 |
| 20260504002518 | 53 | 311 | 1.7 | 5.2 | 0.00 | 0.00 | 0.00 | 47 | 1018.5 |
| 20260504002018 | 53 | 355 | 2.6 | 5.2 | 0.00 | 0.00 | 0.00 | 45 | 1018.6 |
| 20260504001519 | 52 | 284 | 1.7 | 7.8 | 0.00 | 0.00 | 0.00 | 47 | 1018.5 |
| 20260504001018 | 53 | 325 | 3.5 | 7.8 | 0.00 | 0.00 | 0.00 | 46 | 1018.7 |
| 20260504000518 | 53 | 328 | 2.6 | 7.0 | 0.00 | 0.00 | 0.00 | 45 | 1018.7 |
| 20260504000016 | 53 | 329 | 1.7 | 4.3 | 0.00 | 0.00 | 0.00 | 48 | 1018.8 |
| 20260503235516 | 53 | 218 | 1.7 | 4.3 | 0.00 | 0.00 | 0.00 | 46 | 1019.0 |
| 20260503235016 | 53 | 311 | 2.6 | 4.3 | 0.00 | 0.00 | 0.00 | 47 | 1018.9 |
| 20260503234515 | 53 | 258 | 0.0 | 5.2 | 0.00 | 0.00 | 0.00 | 47 | 1019.0 |
| 20260503234017 | 53 | 296 | 0.9 | 5.2 | 0.00 | 0.00 | 0.00 | 47 | 1019.0 |
| 20260503233515 | 53 | 242 | 1.7 | 4.3 | 0.00 | 0.00 | 0.00 | 46 | 1019.0 |
| 20260503233014 | 53 | 304 | 1.7 | 5.2 | 0.00 | 0.00 | 0.00 | 47 | 1018.9 |
| 20260503232515 | 53 | 263 | 2.6 | 5.2 | 0.00 | 0.00 | 0.00 | 46 | 1019.0 |
| 20260503232014 | 53 | 319 | 0.9 | 5.2 | 0.00 | 0.00 | 0.00 | 47 | 1019.1 |
| 20260503231520 | 53 | 314 | 1.7 | 5.2 | 0.00 | 0.00 | 0.00 | 48 | 1019.0 |
| 20260503231014 | 53 | 212 | 1.7 | 7.0 | 0.00 | 0.00 | 0.00 | 47 | 1019.0 |
| 20260503230513 | 53 | 319 | 2.6 | 7.0 | 0.00 | 0.00 | 0.00 | 48 | 1019.0 |
| 20260503230011 | 53 | 136 | 0.9 | 6.1 | 0.00 | 0.00 | 0.00 | 48 | 1019.1 |
| 20260503225515 | 53 | 121 | 1.7 | 3.5 | 0.00 | 0.00 | 0.00 | 48 | 1019.2 |
| 20260503225011 | 53 | 178 | 0.9 | 2.6 | 0.00 | 0.00 | 0.00 | 48 | 1019.4 |
| 20260503224510 | 53 | 201 | 0.9 | 4.3 | 0.00 | 0.00 | 0.00 | 47 | 1019.5 |
| 20260503224016 | 53 | 221 | 1.7 | 7.0 | 0.00 | 0.00 | 0.00 | 48 | 1019.5 |
| 20260503223512 | 53 | 144 | 1.7 | 7.0 | 0.00 | 0.00 | 0.00 | 50 | 1019.4 |
| 20260503223010 | 53 | 235 | 2.6 | 4.3 | 0.00 | 0.00 | 0.00 | 48 | 1019.4 |
| 20260503222508 | 53 | 246 | 0.0 | 4.3 | 0.00 | 0.00 | 0.00 | 50 | 1019.5 |
| 20260503222007 | 52 | 191 | 0.9 | 6.1 | 0.00 | 0.00 | 0.00 | 50 | 1019.5 |
| 20260503221507 | 52 | 233 | 1.7 | 7.0 | 0.00 | 0.00 | 0.00 | 50 | 1019.5 |
| 20260503221007 | 52 | 297 | 2.6 | 7.0 | 0.00 | 0.00 | 0.00 | 49 | 1019.6 |
| 20260503220509 | 52 | 234 | 2.6 | 8.7 | 0.00 | 0.00 | 0.00 | 48 | 1019.7 |
| 20260503220006 | 52 | 279 | 5.2 | 8.7 | 0.00 | 0.00 | 0.00 | 49 | 1019.7 |
| 20260503215507 | 52 | 263 | 0.9 | 6.1 | 0.00 | 0.00 | 0.00 | 50 | 1019.7 |
| 20260503215009 | 52 | 13 | 2.6 | 7.8 | 0.00 | 0.00 | 0.00 | 49 | 1019.7 |
| 20260503214508 | 52 | 277 | 0.9 | 4.3 | 0.00 | 0.00 | 0.00 | 48 | 1019.7 |
| 20260503214007 | 52 | 171 | 1.7 | 5.2 | 0.00 | 0.00 | 0.00 | 48 | 1019.8 |
| 20260503213505 | 52 | 221 | 2.6 | 7.8 | 0.00 | 0.00 | 0.00 | 49 | 1019.7 |
| 20260503213009 | 52 | 282 | 0.9 | 7.8 | 0.00 | 0.00 | 0.00 | 48 | 1019.8 |
| 20260503212505 | 52 | 261 | 0.9 | 7.8 | 0.00 | 0.00 | 0.00 | 48 | 1019.8 |
| 20260503212004 | 52 | 263 | 0.9 | 7.8 | 0.00 | 0.00 | 0.00 | 50 | 1019.7 |
| 20260503211504 | 52 | 168 | 2.6 | 5.2 | 0.00 | 0.00 | 0.00 | 49 | 1019.7 |
| 20260503211003 | 51 | 309 | 0.9 | 4.3 | 0.00 | 0.00 | 0.00 | 50 | 1019.7 |
| 20260503210503 | 51 | 313 | 1.7 | 3.5 | 0.00 | 0.00 | 0.00 | 51 | 1019.8 |
| 20260503210002 | 51 | 196 | 0.9 | 5.2 | 0.00 | 0.00 | 0.00 | 50 | 1019.8 |
| 20260503205501 | 51 | 313 | 1.7 | 5.2 | 0.00 | 0.00 | 0.00 | 50 | 1019.8 |
| 20260503205100 | 51 | 128 | 0.9 | 3.5 | 0.00 | 0.00 | 0.00 | 50 | 1019.9 |
| 20260503205003 | 51 | 116 | 0.9 | 3.5 | 0.00 | 0.00 | 0.00 | 50 | 1019.9 |
| 20260503204605 | 51 | 116 | 1.7 | 4.3 | 0.00 | 0.00 | 0.00 | 49 | 1019.8 |
| 20260503204059 | 51 | 211 | 0.9 | 4.3 | 0.00 | 0.00 | 0.00 | 50 | 1019.8 |
| 20260503203558 | 51 | 273 | 1.7 | 7.0 | 0.00 | 0.00 | 0.00 | 52 | 1019.8 |
| 20260503203058 | 51 | 307 | 2.6 | 7.0 | 0.00 | 0.00 | 0.00 | 51 | 1019.8 |
| 20260503202556 | 51 | 294 | 2.6 | 7.8 | 0.00 | 0.00 | 0.00 | 52 | 1019.8 |
| 20260503202059 | 51 | 314 | 2.6 | 7.8 | 0.00 | 0.00 | 0.00 | 51 | 1019.8 |
| 20260503201556 | 51 | 323 | 1.7 | 7.8 | 0.00 | 0.00 | 0.00 | 51 | 1019.7 |
| 20260503201056 | 51 | 319 | 3.5 | 7.8 | 0.00 | 0.00 | 0.00 | 53 | 1019.8 |
| 20260503200556 | 51 | 238 | 1.7 | 7.0 | 0.00 | 0.00 | 0.00 | 52 | 1019.7 |
| 20260503200053 | 51 | 246 | 1.7 | 7.0 | 0.00 | 0.00 | 0.00 | 53 | 1019.6 |
| 20260503195553 | 50 | 313 | 1.7 | 3.5 | 0.00 | 0.00 | 0.00 | 53 | 1019.7 |
| 20260503195051 | 51 | 314 | 2.6 | 4.3 | 0.00 | 0.00 | 0.00 | 51 | 1019.6 |
| 20260503194550 | 51 | 304 | 1.7 | 4.3 | 0.00 | 0.00 | 0.00 | 50 | 1019.6 |
| 20260503194049 | 51 | 315 | 2.6 | 4.3 | 0.00 | 0.00 | 0.00 | 52 | 1019.7 |
| 20260503193548 | 51 | 269 | 1.7 | 4.3 | 0.00 | 0.00 | 0.00 | 53 | 1019.7 |
| 20260503193102 | 51 | 351 | 1.7 | 3.5 | 0.00 | 0.00 | 0.00 | 50 | 1019.7 |
| 20260503192546 | 51 | 111 | 0.0 | 4.3 | 0.00 | 0.00 | 0.00 | 50 | 1019.7 |
| 20260503192044 | 51 | 195 | 1.7 | 4.3 | 0.00 | 0.00 | 0.00 | 51 | 1019.7 |
| 20260503191545 | 51 | 226 | 0.9 | 4.3 | 0.00 | 0.00 | 0.00 | 51 | 1019.7 |
| 20260503191041 | 51 | 90 | 1.7 | 4.3 | 0.00 | 0.00 | 0.00 | 50 | 1019.7 |
| 20260503190540 | 51 | 241 | 0.9 | 2.6 | 0.00 | 0.00 | 0.00 | 51 | 1019.8 |
| 20260503190049 | 50 | 242 | 0.9 | 2.6 | 0.00 | 0.00 | 0.00 | 52 | 1019.7 |
| 20260503185538 | 50 | 89 | 0.0 | 2.6 | 0.00 | 0.00 | 0.00 | 52 | 1019.7 |
| 20260503185040 | 50 | 169 | 0.0 | 2.6 | 0.00 | 0.00 | 0.00 | 53 | 1019.7 |
| 20260503184535 | 50 | 85 | 0.0 | 3.5 | 0.00 | 0.00 | 0.00 | 53 | 1019.7 |
| 20260503184034 | 49 | 40 | 1.7 | 3.5 | 0.00 | 0.00 | 0.00 | 52 | 1019.7 |
| 20260503183533 | 49 | 143 | 1.7 | 3.5 | 0.00 | 0.00 | 0.00 | 53 | 1019.7 |
| 20260503183032 | 49 | 98 | 0.9 | 2.6 | 0.00 | 0.00 | 0.00 | 51 | 1019.7 |
| 20260503182531 | 48 | 108 | 0.9 | 3.5 | 0.00 | 0.00 | 0.00 | 55 | 1019.6 |
| 20260503182028 | 48 | 196 | 0.0 | 2.6 | 0.00 | 0.00 | 0.00 | 57 | 1019.6 |
| 20260503181527 | 48 | 196 | 0.9 | 2.6 | 0.00 | 0.00 | 0.00 | 58 | 1019.6 |
| 20260503181026 | 48 | 240 | 0.0 | 1.7 | 0.00 | 0.00 | 0.00 | 61 | 1019.6 |
| 20260503180525 | 47 | 222 | 0.0 | 0.0 | 0.00 | 0.00 | 0.00 | 61 | 1019.6 |
| 20260503180035 | 47 | 228 | 0.0 | 0.0 | 0.00 | 0.00 | 0.00 | 63 | 1019.5 |
| 20260503175521 | 46 | 205 | 0.0 | 0.0 | 0.00 | 0.00 | 0.00 | 64 | 1019.6 |
| 20260503175019 | 46 | 207 | 0.0 | 2.6 | 0.00 | 0.00 | 0.00 | 63 | 1019.6 |
| 20260503174518 | 46 | 177 | 0.9 | 2.6 | 0.00 | 0.00 | 0.00 | 64 | 1019.5 |
| 20260503174016 | 45 | 180 | 0.0 | 3.5 | 0.00 | 0.00 | 0.00 | 64 | 1019.6 |
| 20260503173515 | 45 | 191 | 0.0 | 3.5 | 0.00 | 0.00 | 0.00 | 64 | 1019.6 |
| 20260503173013 | 45 | 174 | 0.0 | 2.6 | 0.00 | 0.00 | 0.00 | 65 | 1019.6 |
| 20260503172511 | 45 | 98 | 1.7 | 2.6 | 0.00 | 0.00 | 0.00 | 65 | 1019.5 |
| 20260503172010 | 44 | 133 | 0.0 | 1.7 | 0.00 | 0.00 | 0.00 | 68 | 1019.5 |
| 20260503171511 | 43 | 181 | 0.0 | 3.5 | 0.00 | 0.00 | 0.00 | 69 | 1019.6 |
| 20260503171007 | 43 | 103 | 0.0 | 3.5 | 0.00 | 0.00 | 0.00 | 69 | 1019.7 |
| 20260503170506 | 42 | 50 | 0.0 | 1.7 | 0.00 | 0.00 | 0.00 | 71 | 1019.8 |
| 20260503150537 | 31 | 57 | 0.0 | 1.7 | 0.00 | 0.00 | 0.00 | 91 | 1019.1 |
| 20260503131023 | 28 | 55 | 0.0 | 0.0 | 0.00 | 0.00 | 0.00 | 91 | 1018.8 |
| 20260503130521 | 28 | 55 | 0.0 | 0.0 | 0.00 | 0.00 | 0.00 | 91 | 1018.6 |
| 20260503110513 | 29 | 261 | 0.0 | 0.0 | 0.00 | 0.00 | 0.00 | 92 | 1017.9 |
| 20260503081549 | 33 | 261 | 0.0 | 0.0 | 0.00 | 0.00 | 0.00 | 85 | 1016.5 |
| 20260503081046 | 33 | 261 | 0.0 | 0.0 | 0.00 | 0.00 | 0.00 | 85 | 1016.5 |
| 20260503080548 | 33 | 261 | 0.0 | 0.0 | 0.00 | 0.00 | 0.00 | 85 | 1016.5 |
| 20260503072538 | 35 | 261 | 0.0 | 0.0 | 0.00 | 0.00 | 0.00 | 82 | 1016.4 |
| 20260503072036 | 35 | 261 | 0.0 | 0.0 | 0.00 | 0.00 | 0.00 | 81 | 1016.4 |
| 20260503071543 | 36 | 261 | 0.0 | 0.0 | 0.00 | 0.00 | 0.00 | 81 | 1016.3 |
| 20260503071035 | 36 | 261 | 0.0 | 0.0 | 0.00 | 0.00 | 0.00 | 81 | 1016.2 |
| 20260503070535 | 36 | 261 | 0.0 | 0.0 | 0.00 | 0.00 | 0.00 | 80 | 1016.1 |
| 20260503055030 | 41 | 261 | 0.0 | 0.0 | 0.00 | 0.00 | 0.00 | 71 | 1015.5 |
| 20260503054536 | 41 | 261 | 0.0 | 0.0 | 0.00 | 0.00 | 0.00 | 70 | 1015.5 |
| 20260503054029 | 42 | 261 | 0.0 | 0.0 | 0.00 | 0.00 | 0.00 | 70 | 1015.5 |
| 20260503053528 | 42 | 261 | 0.0 | 1.7 | 0.00 | 0.00 | 0.00 | 69 | 1015.4 |
| 20260503053027 | 42 | 261 | 0.0 | 2.6 | 0.00 | 0.00 | 0.00 | 69 | 1015.5 |
| 20260503052529 | 43 | 261 | 0.0 | 2.6 | 0.00 | 0.00 | 0.00 | 68 | 1015.5 |
| 20260503052027 | 43 | 232 | 0.0 | 1.7 | 0.00 | 0.00 | 0.00 | 68 | 1015.4 |
| 20260503051526 | 43 | 232 | 0.0 | 3.5 | 0.00 | 0.00 | 0.00 | 68 | 1015.3 |
| 20260503051025 | 43 | 211 | 0.0 | 3.5 | 0.00 | 0.00 | 0.00 | 68 | 1015.2 |
| 20260503050526 | 44 | 290 | 1.7 | 3.5 | 0.00 | 0.00 | 0.00 | 67 | 1015.2 |
| 20260503050024 | 44 | 311 | 0.9 | 6.1 | 0.00 | 0.00 | 0.00 | 67 | 1015.2 |
| 20260503045527 | 44 | 238 | 0.9 | 6.1 | 0.00 | 0.00 | 0.00 | 66 | 1015.1 |
| 20260503045023 | 44 | 291 | 1.7 | 6.1 | 0.00 | 0.00 | 0.00 | 66 | 1015.0 |
| 20260503044522 | 44 | 278 | 1.7 | 7.0 | 0.00 | 0.00 | 0.00 | 65 | 1014.8 |
| 20260503044020 | 44 | 294 | 1.7 | 7.0 | 0.00 | 0.00 | 0.00 | 65 | 1014.8 |
| 20260503043520 | 45 | 302 | 1.7 | 6.1 | 0.00 | 0.00 | 0.00 | 64 | 1014.7 |
| 20260503043020 | 45 | 257 | 1.7 | 5.2 | 0.00 | 0.00 | 0.00 | 63 | 1014.5 |
| 20260503042521 | 45 | 235 | 1.7 | 6.1 | 0.00 | 0.00 | 0.00 | 63 | 1014.5 |
| 20260503042018 | 45 | 241 | 0.9 | 3.5 | 0.00 | 0.00 | 0.00 | 64 | 1014.6 |
| 20260503041519 | 45 | 180 | 0.9 | 6.1 | 0.00 | 0.00 | 0.00 | 62 | 1014.5 |
| 20260503041017 | 45 | 211 | 1.7 | 6.1 | 0.00 | 0.00 | 0.00 | 62 | 1014.4 |
| 20260503040520 | 45 | 321 | 1.7 | 6.1 | 0.00 | 0.00 | 0.00 | 62 | 1014.5 |